C/2015 X7 ( ATLAS )

Japanese version
Home page
Updated on February 7, 2017

---------------------------------------------------------------------

* Profile

Discovery Date December 12, 2015
Magnitude 17.6 mag
Discoverer Asteroid Terrestrial-impact Last Alert System (ATLAS) Team

* Pictures

* Orbital Elements

Epoch 2016 July 31.0 TT = JDT 2457600.5
T 2016 July 30.23790 TT                                 MPCW
q   3.6845498            (2000.0)            P               Q
z  -0.0004874      Peri.  348.48630     -0.68040116     -0.49112722
 +/-0.0000019      Node   139.88383     +0.72137761     -0.57960970
e   1.0017959      Incl.   57.58101     +0.12910693     +0.65026660
From 176 observations 2015 Dec. 12-2016 Nov. 3, mean residual 0".5.

* Magnitudes Graph

        m1 = 8.5 + 5 log d + 10.0 log r

---------------------------------------------------------------------

The orbital elements are published on M.P.E.C. 2016-V116.
The magnitudes graphs are made with Comet for Windows.

---------------------------------------------------------------------

Copyright(C) Seiichi Yoshida (comet@aerith.net). All rights reserved.